Helicity
130 130 121 119 118 115 121 127 129 134 130 129 133 139 144 143 149 148 149 152 148 137 130 127 124 120 138 136 127 133 151 163 172 161 141 115 101 102 100 86 80 78 71
121 117 118 117 117 126 133 134 128 118 119 126 129 125 128 132 132 135 142 140 135 133 128 137 138 129 127 117 135 145 163 164 177 168 154 147 138 112 111 104 92 84 80
115 108 114 122 124 127 133 119 110 122 123 122 115 119 123 126 126 125 129 130 134 138 140 148 148 139 142 145 163 181 186 192 194 195 186 153 134 103 98 103 102 92 78
103 114 122 120 122 118 112 111 115 113 106 109 114 117 117 116 115 124 135 143 142 148 144 143 138 138 153 160 177 187 182 188 193 207 202 182 156 125 125 106 104 113 100
116 121 128 130 125 121 119 115 113 107 109 108 109 109 105 108 125 169 148 139 142 147 149 143 154 166 166 156 175 164 167 181 190 195 200 187 165 143 116 99 113 129 113
114 130 136 130 132 131 122 116 107 101 102 108 112 111 109 115 184 155 145 149 149 158 171 169 175 173 136 126 111 104 122 149 145 154 164 194 182 153 113 108 104 126 120
115 124 132 143 145 138 125 106 105 117 120 107 100 119 126 133 167 150 150 156 161 155 168 167 157 139 134 133 136 123 107 76 74 118 151 143 114 113 106 93 80 77 79
121 135 145 146 145 132 118 125 126 113 106 118 125 128 132 129 154 144 151 140 148 139 145 128 126 123 138 134 141 135 115 102 100 119 119 119 112 96 90 98 95 97 88
133 140 139 135 129 124 134 126 115 114 124 127 125 121 126 131 145 152 153 139 142 137 122 122 121 118 101 109 120 117 110 102 87 43 53 72 61 38 57 92 95 99 75
128 132 130 129 137 135 117 123 121 117 116 114 112 112 101 119 119 141 153 156 149 149 140 125 106 117 109 111 127 124 121 103 87 66 65 35 31 72 42 51 69 95 99
120 129 140 133 123 120 120 119 107 109 103 98 95 89 99 120 135 147 150 167 158 144 125 125 132 88 103 86 89 106 100 69 55 67 63 65 36 14 61 67 31 111 130
130 120 112 122 120 107 99 96 92 85 88 94 111 127 130 143 148 144 126 105 92 120 116 124 119 77 63 82 83 49 62 57 86 75 75 68 56 39 64 82 98 114 128
104 128 129 108 98 94 94 93 93 99 104 111 123 125 128 157 169 133 109 85 76 104 117 90 84 89 89 99 65 44 54 92 80 68 74 77 85 83 80 70 68 66 62
132 113 96 91 80 85 86 97 99 98 114 124 131 137 147 159 126 118 112 101 78 95 93 116 101 83 92 102 90 73 67 63 61 60 57 53 41 46 53 58 42 31 -32
105 99 88 88 99 101 106 104 108 107 135 124 121 129 132 128 122 83 95 104 102 99 99 116 105 103 88 92 83 65 56 54 53 41 17 -11 -26 -25 -18 -26 -34 -36 -25
98 95 109 98 102 100 104 106 97 81 82 71 66 83 115 90 78 75 70 60 56 57 106 97 92 85 82 82 77 62 47 33 40 39 30 30 36 25 11 6 13 29 29
110 111 100 98 113 112 108 106 107 102 79 81 92 99 97 79 78 66 52 63 59 67 90 82 76 76 73 72 77 69 61 60 53 58 55 52 46 48 43 43 36 32 29
115 115 111 119 113 110 111 105 104 101 104 107 88 85 93 82 60 45 54 84 83 69 66 67 68 66 72 85 85 88 91 87 84 76 65 55 43 43 40 36 33 37 41
111 123 120 119 115 112 101 107 109 108 116 104 91 94 97 67 38 52 69 90 67 57 55 65 66 70 75 73 76 78 77 76 64 60 67 64 60 59 58 55 53 48 43
125 132 125 123 122 119 112 121 115 108 107 105 93 90 88 76 74 79 77 62 54 54 54 61 62 58 44 48 55 56 68 75 85 85 87 78 65 57 48 43 46 48 24
131 143 141 122 119 118 124 116 111 110 105 103 92 82 39 82 84 76 61 50 46 49 53 57 58 51 34 46 57 66 62 80 84 80 72 62 49 34 35 33 15 -26 16
142 150 141 132 126 112 102 99 107 102 99 98 95 85 50 85 81 67 51 44 42 44 51 52 50 39 30 42 51 57 58 56 50 54 57 57 52 52 54 32 24 29 35
144 140 139 124 102 78 89 80 96 97 101 98 97 86 83 82 70 59 47 37 37 41 17 16 23 21 15 20 26 41 54 57 65 53 49 46 50 47 38 31 26 25 15
143 135 121 107 88 77 84 95 97 85 94 101 92 87 86 67 59 48 36 32 37 38 -12 -9 -5 12 17 5 -2 -6 -14 -2 35 27 23 33 31 25 28 26 23 18 12
132 124 114 97 87 78 85 90 90 97 96 97 87 90 74 59 56 42 34 32 38 -5 -7 -8 -14 -6 0 -6 -12 -20 -19 1 9 10 26 23 23 25 29 29 24 25 22
114 100 105 101 87 77 99 98 96 96 98 84 83 84 58 59 54 37 32 13 -4 -10 -3 -11 -7 5 15 -8 20 -10 -6 -1 3 7 18 27 32 32 30 27 22 25 28
Wind_Speed
25 27 27 29 29 31 32 33 34 35 35 37 38 39 41 42 43 46 48 50 54 57 59 62 64 64 65 64 64 64 64 64 73 75 71 72 73 72 70 68 67 66 65
24 25 27 28 29 31 32 33 34 34 36 38 39 40 42 44 45 48 51 53 57 62 65 65 66 65 66 66 67 67 67 66 70 80 77 78 79 76 76 76 74 71 70
24 25 26 28 29 30 32 32 34 36 38 39 40 43 45 46 49 51 53 57 61 64 65 66 69 70 71 70 70 72 72 73 74 79 86 82 82 80 82 78 77 75 72
24 25 27 28 28 29 30 33 35 37 38 40 43 45 47 49 51 54 59 63 65 65 67 67 69 70 73 75 77 78 79 80 80 81 85 87 84 82 81 86 86 77 74
25 26 27 26 27 28 32 34 37 39 41 43 45 47 49 51 55 60 65 68 70 72 71 70 71 72 75 76 77 78 78 80 81 83 86 87 86 83 83 81 82 80 80
25 24 24 24 27 30 33 36 38 40 42 45 48 50 54 57 59 65 68 71 72 72 76 74 74 75 72 72 75 74 75 79 81 82 83 83 80 77 76 75 77 81 86
21 22 23 25 28 32 35 37 41 44 46 49 51 56 60 62 65 69 71 71 71 71 75 75 74 70 73 73 76 77 76 74 71 74 76 77 80 78 77 78 78 78 80
21 23 25 27 30 33 37 41 44 46 50 54 58 61 64 65 67 69 72 70 69 69 70 71 72 73 73 74 76 77 74 72 68 66 63 65 64 63 64 68 72 72 76
24 26 27 29 32 36 41 44 47 51 56 60 62 64 67 67 68 69 72 71 72 72 71 72 72 72 72 74 76 75 74 72 68 64 60 51 46 43 41 54 61 66 75
26 28 30 32 36 40 44 48 51 56 59 61 63 64 64 65 65 68 71 72 75 75 74 74 73 72 72 73 75 75 74 70 67 64 58 51 52 33 23 21 24 45 61
28 30 33 36 40 44 48 52 55 58 60 63 63 62 63 63 64 66 68 72 74 76 76 75 72 73 74 74 73 71 67 72 63 56 51 45 44 39 30 34 31 42 59
30 33 36 40 44 48 51 54 57 59 63 66 68 69 64 63 64 67 71 70 72 74 76 74 73 74 76 72 69 67 69 64 55 52 51 47 40 38 42 46 50 54 58
31 36 40 43 46 49 54 56 58 60 66 69 71 71 70 68 69 70 70 72 73 74 73 71 77 77 73 71 68 66 62 53 53 52 52 50 55 53 45 46 44 44 37
35 38 41 45 49 51 53 55 61 65 68 71 72 73 72 72 69 68 71 72 74 73 71 71 72 75 69 67 65 60 56 51 43 37 43 38 32 34 39 43 42 27 24
36 40 44 47 51 54 55 58 61 61 65 71 71 71 72 72 71 74 75 76 74 73 76 72 69 66 68 62 59 55 53 45 36 24 11 7 12 15 19 20 26 32 35
39 43 48 51 54 58 61 64 57 56 59 61 62 64 65 67 73 74 75 73 73 73 68 66 65 64 60 59 57 52 51 55 50 37 18 10 9 3 10 16 18 19 25
43 47 51 54 57 61 63 67 72 66 62 65 66 65 67 71 70 73 73 70 70 68 62 60 60 55 56 51 42 36 36 26 17 17 15 6 8 14 19 19 20 23 28
43 47 52 55 58 61 64 66 68 71 75 73 67 68 67 67 70 72 68 67 64 61 55 55 52 49 43 30 21 20 13 5 1 6 10 11 15 20 19 21 21 23 24
46 50 53 56 58 61 62 64 67 70 72 70 69 67 65 65 68 67 64 61 60 56 53 49 44 37 20 7 4 4 9 13 17 12 10 14 16 15 16 18 19 22 22
47 49 54 56 58 60 62 66 68 69 67 66 66 65 64 65 67 63 60 57 54 50 48 44 34 16 9 14 9 12 14 13 9 10 8 9 12 12 16 20 20 19 21
48 51 53 55 58 61 64 63 64 63 64 62 62 61 61 66 62 58 58 53 51 47 43 34 11 6 20 15 11 9 17 13 9 7 5 5 8 10 9 14 19 41 49
47 50 53 56 60 62 62 59 59 59 59 59 59 59 59 57 55 55 52 49 46 41 31 4 7 13 25 19 14 10 10 12 11 4 5 8 11 17 29 49 50 47 45
47 50 54 57 59 59 58 57 55 56 55 55 57 58 55 52 53 51 47 45 43 34 11 22 19 24 26 23 16 8 6 11 5 8 16 21 23 30 38 43 45 45 48
48 52 55 57 58 58 56 57 55 52 51 52 54 52 50 49 49 48 44 42 39 30 42 42 34 29 30 28 23 19 20 18 45 43 42 41 42 43 41 43 44 45 46
49 50 51 53 55 56 55 54 51 50 49 50 50 47 45 46 46 44 40 42 32 30 45 49 50 49 47 36 29 48 59 62 57 55 44 42 41 44 44 43 44 44 45
47 46 47 49 51 54 52 50 47 46 46 48 45 42 43 43 42 38 35 7 17 31 37 42 45 51 51 52 7 40 59 62 56 57 50 45 46 45 44 44 45 43 43
Wind_Direction
296 304 311 317 324 330 333 337 340 341 342 341 341 341 340 339 339 338 337 336 334 332 332 330 329 329 328 327 325 322 320 317 314 315 314 314 313 312 312 312 312 312 312
302 309 315 324 329 333 336 340 341 341 342 342 342 341 340 339 338 337 335 334 332 331 329 329 328 328 326 324 322 320 318 316 313 311 313 311 309 310 309 308 306 306 306
309 315 323 328 332 336 339 341 343 343 343 344 342 340 339 339 337 336 335 333 331 330 329 328 327 326 324 323 322 319 317 315 312 310 309 309 307 306 305 305 304 302 301
315 323 328 332 336 340 343 344 344 345 344 343 343 341 340 338 337 336 334 333 332 330 329 327 326 324 323 323 321 319 318 315 313 310 309 308 307 306 303 301 299 298 297
319 324 331 338 342 345 345 346 347 346 345 344 343 342 340 339 337 336 334 333 331 330 328 327 326 325 324 322 321 320 320 317 315 312 309 308 306 305 302 301 298 297 296
325 332 339 343 345 346 348 347 347 346 346 345 343 342 340 338 338 336 335 333 331 330 329 329 328 327 327 327 324 323 321 319 316 314 312 309 308 306 305 302 299 295 292
340 342 345 346 347 348 349 348 347 346 346 344 342 340 338 337 337 336 335 333 332 331 330 330 330 331 330 329 328 326 324 322 319 317 314 312 310 307 303 300 299 297 295
352 352 352 352 350 351 350 348 347 346 344 342 340 339 337 337 337 337 336 335 334 333 333 333 332 332 332 331 330 329 328 326 325 323 319 318 317 314 308 303 300 298 297
359 357 356 355 353 351 349 347 346 344 342 340 339 339 338 337 338 339 339 337 336 335 336 335 334 333 333 333 332 330 330 330 331 329 326 320 315 315 312 309 304 301 297
359 358 358 356 354 350 348 346 344 343 341 341 340 339 340 339 341 341 341 339 337 337 337 337 336 335 335 335 334 332 330 330 332 334 331 332 331 317 291 291 301 310 306
1 0 358 355 351 349 347 345 344 343 342 341 341 342 342 342 342 342 342 340 339 338 337 337 337 336 335 334 335 335 334 335 335 338 340 341 340 339 339 337 328 321 312
0 356 353 351 349 347 346 346 345 344 342 342 342 341 343 344 344 344 342 342 341 339 337 337 337 336 335 336 336 335 335 337 340 341 342 343 345 340 330 322 319 316 314
355 352 350 349 349 348 346 345 345 345 343 342 341 341 342 344 344 343 343 342 341 340 339 338 338 339 338 337 337 337 339 343 344 342 340 341 337 337 337 331 327 325 322
352 351 350 348 346 347 348 347 345 343 342 342 342 341 341 342 343 344 343 343 342 341 342 342 340 341 343 344 345 345 345 348 354 354 349 351 355 354 345 339 328 334 247
350 349 348 348 347 346 346 345 344 346 345 342 342 342 342 342 344 342 343 343 343 343 342 344 346 349 348 351 352 351 349 354 0 9 5 305 269 257 246 239 239 242 242
348 347 347 346 345 344 343 343 346 345 346 345 344 343 343 342 342 343 344 344 345 345 347 349 351 353 355 357 358 0 358 350 353 5 13 13 17 355 236 231 224 221 229
345 345 344 344 344 343 343 342 341 344 346 345 346 345 344 343 344 345 345 347 348 350 353 355 355 360 1 6 12 17 16 24 29 32 35 51 222 230 237 231 228 230 237
347 346 343 343 343 343 343 343 343 342 342 344 346 345 346 347 346 346 348 350 352 355 358 359 3 7 12 21 26 30 34 33 63 227 231 230 236 241 239 239 237 237 234
343 342 343 342 343 343 343 343 343 342 343 343 345 347 348 349 348 350 352 354 355 358 1 5 10 17 26 9 354 291 260 256 257 251 240 240 239 232 231 230 232 239 237
341 341 341 342 342 342 342 342 342 343 344 345 346 347 348 350 351 353 355 356 359 2 5 9 18 28 271 261 262 258 258 256 245 241 231 227 230 222 234 241 238 232 233
339 340 341 341 341 341 341 340 342 344 344 345 347 349 349 350 352 354 355 359 2 7 11 20 33 259 261 254 245 236 257 253 247 245 235 225 223 229 213 225 242 281 338
338 339 340 340 340 340 340 342 343 344 345 346 348 350 351 354 356 355 358 1 7 13 25 42 244 245 262 254 245 235 248 261 268 295 28 41 48 44 25 353 345 347 349
337 337 338 338 339 340 342 343 344 344 346 348 349 351 354 356 356 358 1 5 9 22 255 256 250 257 262 258 245 234 263 275 323 16 38 46 52 44 31 22 10 5 347
334 335 336 338 340 341 342 343 344 346 348 350 351 353 356 357 359 0 3 7 12 25 282 282 270 262 266 266 264 266 272 307 22 25 27 29 30 29 32 26 23 19 7
332 333 336 339 340 342 342 344 345 348 350 351 353 355 358 358 1 3 9 6 20 270 283 292 295 293 291 272 268 300 325 342 4 4 26 31 32 28 28 28 24 21 17
331 334 335 339 340 341 342 343 346 348 350 352 355 358 357 0 4 9 16 17 249 264 269 278 285 298 297 306 47 286 337 347 357 346 16 27 25 25 25 25 21 23 24